sat.trackr.live / text

‹ back to catalog

BANGABANDHUSAT-1

NORAD 43463 · 2018-044A

PAYLOAD ACTIVE UNKNOWN

§ Identity

Operator
Country
BGD
Launch date
2018-05-11
Launch site
AFETR
Launch vehicle
Mass (kg)
RCS (m²)

Purposes: comms

External: N2YO · Heavens-Above · Gunter

§ Orbital elements

Epoch: 2026-09-20T00:22:46.197408Z

Period
1,436.09 min
Inclination
0.0086°
Eccentricity
0.0002425
Mean motion
1.00272363 rev/d
Perigee alt
35,776.2 km
Apogee alt
35,796.7 km
Semi-major
42,164.6 km
B*
0.0000e+0
RAAN
147.6883°
Arg perigee
38.2111°
Mean anomaly
297.8198°
Rev number
3,066

§ Raw data

BANGABANDHUSAT-11 43463U 18044A   26263.01581247 -.00000367  00000+0  00000+0 0  99992 43463   0.0086 147.6883 0002425  38.2111 297.8198  1.00272363 30665

JSON: /api/v1/satellites/43463 · /tle

For live sub-satellite position, see the globe view (requires WebGL).

§ Visibility from observer

Set your observer location to see the next 7 days of passes ≥ 10°. The values pass through the URL so the page stays shareable.

No JS? Fill the form by hand. The geolocation button needs JavaScript.